Regional Weather Roundup
Issued by NWS

Home | Current Version | Previous Version | Graphics & Text | Print | Product List | Glossary On
Versions: 1 2 3 4 5 6 7 8 9 10 11 12 13 14 15 16 17 18 19 20 21 22 23 24 25 26 27 28 29 30 31 32 33 34 35 36 37 38 39 40 41 42 43 44 45 46 47 48 49 50
577
ASUS43 KFSD 131110
RWRSD

WEATHER ROUNDUP FOR SOUTH DAKOTA
NATIONAL WEATHER SERVICE SIOUX FALLS SD
500 AM CST WED DEC 13 2017

NOTE: "FAIR" INDICATES FEW OR NO CLOUDS BELOW 12,000 FEET WITH NO
SIGNIFICANT WEATHER AND/OR OBSTRUCTIONS TO VISIBILITY.


SDZ001>005-009-010-012>017-131200-
NORTHWEST AND NORTH CENTRAL SOUTH DAKOTA

CITY           SKY/WX    TMP DP  RH WIND       PRES   REMARKS
BUFFALO          N/A     39  22  50 NW30G37   29.89R
FAITH            N/A     40  24  53 NW31G41   29.87R
MOBRIDGE       PTCLDY    42  29  59 NW25G35   29.74R
$$

SDZ012>016-024>037-041>051-057-063-072>074-131200-
SOUTHWEST AND SOUTH CENTRAL SOUTH DAKOTA

CITY           SKY/WX    TMP DP  RH WIND       PRES   REMARKS
RAPID CTY ARPT CLEAR     45  18  34 NW39G55   29.92F
PIERRE         CLEAR     45  28  51 NW28G38   29.77R
CUSTER         CLEAR     38  12  34 NW13G32   29.96S
ELLSWORTH AFB  CLEAR     45  17  32 NW37G51   29.92
PHILIP         CLEAR     46  23  40 NW36G52   29.87F
PINE RIDGE     CLEAR     31  19  61 CALM      29.98R
SPEARFISH      FAIR      41  18  38 W20G36    30.04R
WINNER         FAIR      49  24  37 NW33G45   29.77R
$$

SDZ004>011-016>023-039-040-131200-
NORTHEAST SOUTH DAKOTA

CITY           SKY/WX    TMP DP  RH WIND       PRES   REMARKS
ABERDEEN       MOCLDY    40  35  83 NW26G38   29.64R
WATERTOWN      MIX PCPN  36  35  96 NW30G39   29.53R
BROOKINGS      CLOUDY    39  34  82 NW32G38   29.50R
SISSETON         N/A     36  34  92 NW29G37   29.53R
$$

SDZ017-020-022-023-036>040-048>070-131200-
SOUTHEAST SOUTH DAKOTA

CITY           SKY/WX    TMP DP  RH WIND       PRES   REMARKS
SIOUX FALLS    CLOUDY    45  32  60 NW30G46   29.53R
HURON          LGT RAIN  45  31  58 NW32G40   29.62R
CHAMBERLAIN    PTCLDY    49  29  45 NW38G49   29.74R
MITCHELL       CLOUDY    47  29  49 NW22G39   29.64S
YANKTON        CLOUDY    50  28  42 NW32G39   29.60F
$$

ABBREVIATIONS USED IN REMARKS
   TC - TEMPERATURE IN CELSIUS
  WCI - WIND CHILL INDEX
   HX - HEAT INDEX
  VSB - VISIBILITY





USA.gov is the U.S. government's official web portal to all federal, state and local government web resources and services.